User: anonymous   Login
Location: Unspecified
(0.0000°N, 0.0000°E)
Time: 07:43:12
(UTC+00:00)
Language:

USA 136 - Orbit

View from above orbital plane
View from above orbital plane
View from above satellite
View from above satellite

Ground track
Ground track

The orbit data is extracted from the following two-line orbital elements,

1 25034U 97068A   18172.88510776 0.00000000  00000-0  00000-0 0    08
2 25034  63.3886 191.8350 6110358 284.0015  18.5750  2.00596000    09
Epoch (UTC): 21 June 2018 21:14:33
Eccentricity: 0.6110358
inclination: 63.3886°
perigee height: 3952 km
apogee height: 36406 km
right ascension of ascending node: 191.8350°
argument of perigee: 284.0015°
revolutions per day: 2.00596000
mean anomaly at epoch: 18.5750°
orbit number at epoch: 0

The dashed part of the orbit path shows where the satellite is in the earth's shadow,  

DLR